Deer Park, WA

1:12 PM PDT on July 27, 2016 (GMT -0700)
Deer Park

Weather History for KDEW - January, 2012

Change the Weather History Date:

Sunday, January 1, 2012

  Actual Average Record
Temperature  
Mean Temperature 34 °F 25 °F  
Max Temperature 38 °F 31 °F 43 °F (2006)
Min Temperature 29 °F 19 °F -15 °F (2011)
Degree Days  
Heating Degree Days 31 40  
Month to date heating degree days 31 40  
Since 1 July heating degree days 3093 3267  
Cooling Degree Days 0 0  
Month to date cooling degree days 0 0  
Year to date cooling degree days 0 0  
Moisture  
Dew Point 22 °F    
Average Humidity 69    
Maximum Humidity 85    
Minimum Humidity 52    
Precipitation  
Precipitation 0.00 in 0.11 in 0.50 in (2009)
Month to date precipitation 0.00 0.11  
Year to date precipitation 0.00 0.11  
Sea Level Pressure  
Sea Level Pressure 30.53 in    
Wind  
Wind Speed 11 mph (NNE)    
Max Wind Speed 17 mph    
Max Gust Speed 22 mph    
Visibility 10 miles    
Events      
T = Trace of Precipitation, MM = Missing Value Source: NWS Daily Summary

Daily Weather History Graph

Daily Weather History Graph

Search for Another Location

Airport or City:

Trip Planner

Search our weather history database for the weather conditions in past years. The results will help you decide how hot, cold, wet, or windy it might be!

Date:

Astronomy

Jan. 01, 2012 Rise Set
Actual Time 7:39 AM PST 4:07 PM PST
Civil Twilight 7:03 AM PST 4:43 PM PST
Nautical Twilight 6:23 AM PST 5:22 PM PST
Astronomical Twilight 5:46 AM PST 6:00 PM PST
Moon 11:13 AM PST (1/1) 12:21 AM PST (1/1)
Length of Visible Light 9h 39m
Length of Day
8h 27m
First Quarter, 55% of the Moon is Illuminated
Jan 1
First Quarter
Jan 8
Full
Jan 16
Last Quarter
Jan 22
New
Jan 30
First Quarter

Hourly Weather History & Observations

Time (PST) Temp. Windchill Dew Point Humidity Pressure Visibility Wind Dir Wind Speed Gust Speed Precip Events Conditions
12:53 AM 30.0 °F 21.7 °F 23.0 °F 75% 30.50 in 10.0 mi NNE 9.2 mph - N/A   Clear
2:53 AM 30.0 °F 22.4 °F 23.0 °F 75% 30.53 in 10.0 mi NNE 8.1 mph - N/A   Overcast
3:53 AM 30.0 °F 21.7 °F 21.9 °F 72% 30.54 in 10.0 mi NNE 9.2 mph - N/A   Overcast
4:53 AM 30.0 °F 22.4 °F 21.9 °F 72% 30.54 in 10.0 mi NNE 8.1 mph - N/A   Overcast
5:53 AM 30.9 °F 22.2 °F 21.9 °F 69% 30.54 in 10.0 mi NNE 10.4 mph - N/A   Overcast
7:53 AM 30.9 °F 21.7 °F 21.9 °F 69% 30.58 in 10.0 mi NNE 11.5 mph - N/A   Overcast
8:53 AM 32.0 °F 23.6 °F 21.9 °F 66% 30.60 in 10.0 mi NNE 10.4 mph - N/A   Overcast
9:53 AM 32.0 °F 23.0 °F 21.9 °F 66% 30.62 in 10.0 mi NNE 11.5 mph - N/A   Overcast
10:53 AM 34.0 °F 26.0 °F 21.9 °F 61% 30.61 in 10.0 mi NNE 10.4 mph - N/A   Overcast
11:53 AM 35.1 °F 27.4 °F 21.9 °F 59% 30.59 in 10.0 mi NE 10.4 mph - N/A   Overcast
12:53 PM 37.0 °F 29.8 °F 21.9 °F 54% 30.58 in 10.0 mi NE 10.4 mph - N/A   Clear
2:53 PM 36.0 °F 29.0 °F 21.9 °F 57% 30.57 in 10.0 mi NNE 9.2 mph - N/A   Clear
3:53 PM 35.1 °F 27.9 °F 21.9 °F 59% 30.57 in 10.0 mi NNE 9.2 mph - N/A   Scattered Clouds
4:53 PM 35.1 °F 25.9 °F 21.0 °F 57% 30.54 in 10.0 mi NNE 13.8 mph - N/A   Clear
5:53 PM 35.1 °F 25.9 °F 21.0 °F 57% 30.52 in 10.0 mi NE 13.8 mph 21.9 mph N/A   Clear
6:53 PM 34.0 °F 25.0 °F 21.0 °F 59% 30.50 in 10.0 mi NE 12.7 mph 20.7 mph N/A   Clear
7:53 PM 34.0 °F 25.0 °F 21.0 °F 59% 30.49 in 10.0 mi NNE 12.7 mph - N/A   Clear
8:53 PM 34.0 °F 24.6 °F 21.0 °F 59% 30.46 in 10.0 mi NNE 13.8 mph - N/A   Clear
9:53 PM 34.0 °F 25.0 °F 21.0 °F 59% 30.44 in 10.0 mi NNE 12.7 mph - N/A   Clear
10:53 PM 33.1 °F 24.4 °F 21.9 °F 64% 30.42 in 10.0 mi NNE 11.5 mph - N/A   Clear
11:53 PM 33.1 °F 24.9 °F 21.0 °F 61% 30.40 in 10.0 mi NNE 10.4 mph - N/A   Clear